Tracking 35051 objects as of 17-Aug-2026
HD Live streaming from Space Station
objects crossing your sky now

STARLINK-38071

Track STARLINK-38071 now!
10-day predictions
STARLINK-38071 is classified as:


NORAD ID: 69992
Int'l Code: 2026-159T
Launch date: July 11, 2026
Source: United States (US)
Launch site: AIR FORCE WESTERN TEST RANGE (AFWTR)
Your satellite tracking list
Your tracking list is empty




NASA's NSSDC Master Catalog

Two Line Element Set (TLE):
1 69992U 26159T   26229.12169442  .00155186  00000-0  10228-2 0  9999
2 69992  97.2857  69.5232 0001362  69.8697 290.2715 15.75182615  7058
Source of the keplerian elements: AFSPC